Location: Beutels
(47.8767°N, 9.8584°E)
Time: 23:57:19
(UTC+00:00)

Cosmos 2219 Rocket - Pass Details

Date: 19 May 2025
Orbit: 828 x 844 km, 71.0° (Epoch: 22 June)

Event Time Altitude Azimuth Distance (km) Brightness Sun altitude
Rises 22:20:38 0° 337° (NNW) 3,399 6.8 -21.0°
Reaches altitude 10° 22:23:27 10° 349° (NNW) 2,458 5.8 -21.1°
Maximum altitude 22:28:15 28° 47° (NE) 1,529 3.8 -21.3°
Enters shadow 22:32:30 12° 102° (ESE) 2,284 4.2 -21.4°
